Regional Weather Roundup
Issued by NWS

Home | Current Version | Previous Version | Graphics & Text | Print | Product List | Glossary On
Versions: 1 2 3 4 5 6 7 8 9 10 11 12 13 14 15 16 17 18 19 20 21 22 23 24 25 26 27 28 29 30 31 32 33 34 35 36 37 38 39 40 41 42 43 44 45 46 47 48 49 50
000
ASUS43 KLOT 292358
RWRIL

ILLINOIS REGIONAL WEATHER ROUNDUP
NATIONAL WEATHER SERVICE CHICAGO/ROMEOVILLE IL
700 PM CDT TUE JUL 29 2014

NOTE: "FAIR" INDICATES FEW OR NO CLOUDS BELOW 12,000 FEET WITH NO
SIGNIFICANT WEATHER AND/OR OBSTRUCTIONS TO VISIBILITY.

* THESE STATIONS ARE NOT UNDER NWS QUALITY CONTROL. THEY ALSO MAY NOT
  REPORT WEATHER SUCH AS PRECIPITATION OR FOG.

ILZ001-002-007-009-015-016-024-300100-
NORTHWEST ILLINOIS

CITY           SKY/WX    TMP DP  RH WIND       PRES   REMARKS
MOLINE         SUNNY     77  56  48 W10       30.03F
6HR MIN TEMP:  77; 6HR MAX TEMP:  81;

$$

ILZ003-004-008-010-011-017-018-300100-
NORTH CENTRAL ILLINOIS

CITY           SKY/WX    TMP DP  RH WIND       PRES   REMARKS
ROCKFORD       NOT AVBL
$$

ILZ005-006-012>014-019>023-300100-
NORTHEAST ILLINOIS

CITY           SKY/WX    TMP DP  RH WIND       PRES   REMARKS
CHICAGO-OHARE  MOSUNNY   75  55  49 W13       29.98S
6HR MIN TEMP:  75; 6HR MAX TEMP:  81;

CHICAGO-MIDWAY PTSUNNY   77  57  50 W10       29.99S
6HR MIN TEMP:  75; 6HR MAX TEMP:  81;

AURORA         PTSUNNY   68  59  73 SW7       30.02S
6HR MIN TEMP:  66; 6HR MAX TEMP:  80; 6HR PCP:  0.32;

WAUKEGAN       SUNNY     70  60  70 SE6       29.98S
6HR MIN TEMP:  69; 6HR MAX TEMP:  78;

DUPAGE AIRPORT SUNNY     72  59  63 W12       30.00S
6HR MIN TEMP:  71; 6HR MAX TEMP:  81; 6HR PCP: TRACE;

WHEELING       MOSUNNY   78  52  40 W9G17     29.99S
6HR MIN TEMP:  78; 6HR MAX TEMP:  82;

NORTHERLY ISL    N/A     67  62  84 SE3         N/A
$$

LMZ740>746-300100-
SOUTHERN LAKE MICHIGAN

STATION/POSITION SKY/WX   TEMP    WIND        PRES    VSBY  WAVE
                          AIR SEA DIR/SP/G                  HT/PER
                          (F)     (DEG/KT/KT) (MB)    (MI)  (FT/S)
SOUTHERN BUOY              63 62  200/  8/  8 1015.5F         1
WAUKEGAN HARBOR            67     160/  6/  8   N/A
HARRISON CRIB              67     160/  8/  9   N/A
BURNHAM HARBOR             68     120/  4/  6   N/A
CALUMET HARBOR             73     200/  5/  7 1014.5F
MICHIGAN CITY              69      40/  3/  3   N/A
MICHIGAN CITY 6N           68 69  140/  2/  4   N/A           1
ST. JOSEPH                 67 68  120/  2/  4   N/A           1/ 3
$$

ILZ025>027-034>036-040-047-049-050-058-095>099-300100-
WEST-CENTRAL ILLINOIS

CITY           SKY/WX    TMP DP  RH WIND       PRES   REMARKS
$$

ILZ028>032-037-038-041>044-048-051>054-059>061-300100-
CENTRAL ILLINOIS

CITY           SKY/WX    TMP DP  RH WIND       PRES   REMARKS
PEORIA         NOT AVBL
SPRINGFIELD    SUNNY     76  59  55 W6        30.07F
6HR MIN TEMP:  76; 6HR MAX TEMP:  80;

TAYLORVILLE    NOT AVBL
$$

ILZ033-039-045-046-055>057-062-063-300100-
EAST-CENTRAL ILLINOIS

CITY           SKY/WX    TMP DP  RH WIND       PRES   REMARKS
CHAMPAIGN      SUNNY     73  59  61 W10       30.05F
MATTOON        SUNNY     72  56  57 W8        30.05F
$$

ILZ079-100>102-300100-
SOUTHWEST ILLINOIS

CITY           SKY/WX    TMP DP  RH WIND       PRES   REMARKS
ALTON          MOSUNNY   75  57  53 NW7       30.08F
CAHOKIA*       MOSUNNY   79  54  41 NW6       30.07F
$$

ILZ064>066-069>071-074>076-080>082-084>086-088>090-092>094-300100-
SOUTH-CENTRAL ILLINOIS

CITY           SKY/WX    TMP DP  RH WIND       PRES   REMARKS
CARBONDALE     SUNNY     77  54  44 W3        30.08F
6HR MIN TEMP:  75; 6HR MAX TEMP:  80;

$$

ILZ067-068-072-073-078-083-087-091-300100-
SOUTHEAST ILLINOIS

CITY           SKY/WX    TMP DP  RH WIND       PRES   REMARKS
FAIRFIELD*     SUNNY     77  59  53 CALM      30.07F
$$

ABBREVIATIONS USED IN REMARKS
   TC - TEMPERATURE IN CELSIUS
  WCI - WIND CHILL INDEX
   HX - HEAT INDEX
  VSB - VISIBILITY
$$



USA.gov is the U.S. government's official web portal to all federal, state and local government web resources and services.